Location: Deneb Observatory
(47.2267°N, 100.4953°W)
Time: 07:06:38
(UTC-05:00)

Iridium 66 - Visible Passes

Search period start: 21 August 2017 00:00
Search period end: 31 August 2017 00:00
Orbit: 776 x 779 km, 86.4° (Epoch: 20 August)

Date Brightness Start Highest point End Pass type
(mag) Time Alt. Az. Time Alt. Az. Time Alt. Az.
21 Aug 7.6 03:31:39 10° NNE 03:36:14 30° ENE 03:39:39 16° SE visible
21 Aug 6.6 05:12:14 10° NNW 05:17:01 38° W 05:20:05 20° SW visible
22 Aug 8.3 02:58:50 10° NNE 03:02:23 18° ENE 03:05:43 11° ESE visible
22 Aug 6.0 04:38:27 10° N 04:43:38 66° W 04:46:09 30° SSW visible
23 Aug 8.8 02:27:30 10° NE 02:28:23 10° ENE 02:29:17 10° ENE visible
23 Aug 6.1 04:04:53 10° N 04:10:07 73° E 04:12:14 36° SSE visible
23 Aug 7.7 05:47:05 10° NW 05:50:12 16° WNW 05:52:41 12° WSW visible
24 Aug 7.0 03:31:31 10° N 03:36:29 41° E 03:38:22 30° SE visible
24 Aug 7.1 05:12:38 10° NNW 05:17:00 27° W 05:18:48 22° WSW visible
25 Aug 7.8 02:58:26 10° NNE 03:02:43 25° ENE 03:04:30 21° ESE visible
25 Aug 6.3 04:38:41 10° NNW 04:43:40 47° W 04:44:57 39° SW visible
26 Aug 8.4 02:25:54 10° NE 02:28:48 15° ENE 02:30:41 12° E visible
26 Aug 5.9 04:04:59 10° N 04:10:14 82° W 04:11:07 62° SSW visible
26 Aug 8.0 05:48:26 10° NW 05:50:03 11° WNW 05:51:33 10° W visible
27 Aug 6.4 03:31:30 10° N 03:36:41 58° E 03:37:19 54° ESE visible
27 Aug 7.4 05:13:13 10° NNW 05:16:56 20° WNW 05:17:45 19° W visible
28 Aug 7.3 02:58:15 10° NNE 03:02:59 34° ENE 03:03:31 33° E visible
28 Aug 6.8 04:39:02 10° NNW 04:43:41 34° W 04:43:58 33° W visible
29 Aug 8.0 02:25:20 10° NNE 02:29:10 20° ENE 02:29:45 20° E visible
29 Aug 6.1 04:05:11 10° N 04:10:11 58° W 04:10:11 58° W visible
30 Aug 8.5 01:53:19 10° NE 01:55:12 12° ENE 01:55:59 11° ENE visible
30 Aug 6.1 03:31:34 10° N 03:36:26 75° NNE 03:36:26 75° NNE visible
30 Aug 7.8 05:14:06 10° NW 05:16:48 14° WNW 05:16:52 14° WNW visible
